This is the latest recevied weather packets stored in our database for station/object KORK. If no packets are shown the sender has not sent any weather packets the latest 1 day(s).
| Time | Temp. | Humidity | Pressure | Rain* | Wind** | Luminosity | Snow |
|---|---|---|---|---|---|---|---|
| 1778105022 | 11.67° C | 87% | 1014.6 hPa | 0.25 mm | - | - | - |
| 1778102615 | 11.67° C | 87% | 1014.2 hPa | - | - | - | - |
| 1778097818 | 10.56° C | 93% | 1014.9 hPa | 0.25 mm | - | - | - |
| 1778094219 | 10° C | 99% | 1016.3 hPa | 0.51 mm | - | - | - |
| 1778090742 | 10° C | 93% | 1016.6 hPa | - | - | - | - |
| 1778090017 | 10.56° C | 87% | 1016.3 hPa | - | - | - | - |
| 1778089418 | 10.56° C | 87% | 1016.3 hPa | - | - | - | - |
| 1778088821 | 10.56° C | 87% | 1015.2 hPa | - | - | - | - |
| 1778087621 | 10.56° C | 81% | 1015.6 hPa | - | - | - | - |
| 1778087020 | 10.56° C | 81% | 1015.6 hPa | - | - | - | - |
| 1778084620 | 10.56° C | 87% | 1015.2 hPa | - | - | - | - |
| 1778084020 | 10.56° C | 87% | 1015.6 hPa | - | - | - | - |
| 1778082218 | 10° C | 93% | 1014.9 hPa | - | - | - | - |
| 1778081619 | 10° C | 93% | 1015.6 hPa | - | - | - | - |
| 1778081020 | 10° C | 93% | 1015.6 hPa | - | - | - | - |
| 1778078019 | 8.89° C | 100% | 1014.9 hPa | - | - | - | - |
| 1778077415 | 8.89° C | 100% | 1014.9 hPa | - | - | - | - |
| 1778075617 | 8.89° C | 100% | 1014.9 hPa | - | - | - | - |
| 1778075016 | 8.89° C | 100% | 1014.9 hPa | - | - | - | - |
| 1778073218 | 8.89° C | 100% | 1014.6 hPa | - | - | - | - |
| 1778071418 | 8.89° C | 100% | 1013.2 hPa | - | - | - | - |
| 1778070816 | 8.89° C | 100% | 1013.5 hPa | - | - | - | - |
| 1778069617 | 8.89° C | 100% | 1012.9 hPa | 0.51 mm | - | - | - |
| 1778067817 | 8.89° C | 100% | 1011.9 hPa | - | - | - | - |
| 1778066620 | 10° C | 93% | 1012.2 hPa | - | - | - | - |
* Rain latest hour (hover to see other rain measurements)
** Current wind speed in m/s (hover to see current wind gust speed)